Probability
0 0 0 0 0 0 0 0 0 0 0 0 0 0 0 0 0 0 0 0 0 0 0 0 0 0 0 0 0 0 0 0 0 0 0 0 0 0 0 0 0 0 0 0
0 0 0 0 0 0 0 0 0 0 0 0 0 0 0 0 0 0 0 0 0 0 0 0 0 0 0 0 0 0 0 0 0 0 0 0 0 0 0 0 0 0 0 0
0 0 0 0 0 0 0 0 0 0 0 0 0 0 0 0 0 0 0 0 0 0 0 0 0 0 0 0 0 0 0 0 0 0 0 0 0 0 0 0 0 0 0 0
0 0 0 0 0 0 0 0 0 0 0 0 0 0 0 0 0 0 0 0 0 0 0 0 0 0 0 0 0 0 0 0 0 0 0 0 0 0 0 0 0 0 0 0
0 0 0 0 0 0 0 0 0 0 0 0 0 0 0 0 0 0 0 0 0 0 0 0 0 0 0 0 0 0 0 0 0 0 0 0 0 0 0 0 0 0 0 0
0 0 0 0 0 0 0 0 0 0 0 0 0 0 0 0 0 0 0 0 0 0 0 0 0 0 0 0 0 0 0 0 0 0 0 0 0 0 0 0 0 0 0 0
0 0 0 0 0 0 0 0 0 0 0 0 0 0 0 0 0 0 0 0 0 0 0 0 0 0 0 0 0 0 0 0 0 0 0 0 0 0 0 0 0 0 0 0
0 0 0 0 0 0 0 0 0 0 0 0 0 0 0 0 0 0 0 0 0 0 0 0 0 0 0 0 0 0 0 0 0 0 0 0 0 0 0 0 0 0 0 0
0 0 0 0 0 0 0 0 0 0 0 0 0 0 0 0 0 0 0 0 0 0 0 0 0 0 0 0 0 0 0 0 0 0 0 0 0 0 0 0 0 0 0 0
0 0 0 0 0 0 0 0 0 0 0 0 0 0 0 0 0 0 0 0 0 0 0 0 0 0 0 0 0 0 0 0 0 0 0 0 0 0 0 0 0 0 0 0
0 0 0 0 0 0 0 0 0 0 0 0 0 0 0 0 0 0 0 0 0 0 0 0 0 0 0 0 0 0 0 0 0 0 0 0 0 0 0 0 0 0 0 0
0 0 0 0 0 0 0 0 0 0 0 0 0 0 0 0 0 0 0 0 0 0 0 0 0 0 0 0 0 0 0 0 0 0 0 0 0 0 0 0 0 0 0 0
0 0 0 0 0 0 0 0 0 0 0 0 0 0 0 0 0 0 0 0 0 0 0 0 0 0 0 0 0 0 0 0 0 0 0 0 0 0 0 0 0 0 0 0
0 0 0 0 0 0 0 0 0 0 0 0 0 0 0 0 0 0 0 0 0 0 0 0 0 0 0 0 0 0 0 0 0 0 0 0 0 0 0 0 0 0 0 0
0 0 0 0 0 0 0 0 0 0 0 0 0 0 0 0 0 0 0 0 0 0 0 0 0 0 0 0 0 0 0 0 0 0 0 0 0 0 0 0 0 0 0 0
0 0 0 0 0 0 0 0 0 0 0 0 0 0 0 0 0 0 0 0 0 0 0 0 0 0 0 0 0 0 0 0 0 0 0 0 0 0 0 0 0 0 0 0
0 0 0 0 0 0 0 0 0 0 0 0 0 0 0 0 0 0 0 0 0 0 0 0 0 0 0 0 0 0 0 0 0 0 0 0 0 0 0 0 0 0 0 0
0 0 0 0 0 0 0 0 0 0 0 0 0 0 0 0 0 0 0 0 0 0 0 0 0 0 0 0 0 0 0 0 0 0 0 0 0 0 0 0 0 0 0 0
0 0 0 0 0 0 0 0 0 0 0 0 0 0 0 0 0 0 0 0 0 0 0 0 0 0 0 0 0 0 0 0 0 0 0 0 0 0 0 0 0 0 0 0
0 0 0 0 0 0 0 0 0 0 0 0 0 0 0 0 0 0 0 0 0 0 0 0 0 0 0 0 0 0 0 0 0 0 0 0 0 0 0 0 0 0 0 0
0 0 0 0 0 0 0 0 0 0 0 0 0 0 0 0 0 0 0 0 0 0 0 0 0 0 0 0 0 0 0 0 0 0 0 0 0 0 0 0 0 0 0 0
0 0 0 0 0 0 0 0 0 0 0 0 0 0 0 0 0 0 0 0 0 0 0 0 0 0 0 0 0 0 0 0 0 0 0 0 0 0 0 0 0 0 0 0
0 0 0 0 0 0 0 0 0 0 0 0 0 0 0 0 0 0 0 0 0 0 0 0 0 0 0 0 0 0 0 0 0 0 0 0 0 0 0 0 0 0 0 0
0 0 0 0 0 0 0 0 0 0 0 0 0 0 0 0 0 0 0 0 0 0 0 0 0 0 0 0 0 0 0 0 0 0 0 0 0 0 0 0 0 0 0 0
0 0 0 0 0 0 0 0 0 0 0 0 0 0 0 0 0 0 0 0 0 0 0 0 0 0 0 0 0 0 0 0 0 0 0 0 0 0 0 0 0 0 0 0
0 0 0 0 0 0 0 0 0 0 0 0 0 0 0 0 0 0 0 0 0 0 0 0 0 0 0 0 0 0 0 0 0 0 0 0 0 0 0 0 0 0 0 0
Height
5700 5702 5703 5706 5708 5710 5712 5715 5717 5719 5721 5724 5726 5728 5730 5731 5733 5734 5735 5737 5738 5739 5740 5740 5740 5741 5741 5741 5742 5741 5741 5740 5739 5738 5738 5738 5738 5738 5739 5739 5740 5742 5743 5745
5701 5701 5703 5704 5706 5708 5710 5712 5714 5716 5718 5720 5722 5724 5725 5727 5728 5729 5730 5731 5733 5733 5734 5734 5734 5734 5734 5734 5734 5734 5733 5732 5731 5730 5730 5729 5729 5729 5729 5730 5730 5731 5733 5734
5700 5702 5702 5703 5705 5707 5708 5710 5712 5713 5715 5716 5718 5720 5721 5722 5723 5724 5725 5726 5727 5728 5728 5728 5728 5728 5728 5727 5727 5726 5725 5724 5723 5722 5722 5721 5720 5720 5720 5720 5720 5721 5722 5723
5700 5700 5701 5702 5703 5705 5707 5708 5709 5711 5712 5713 5715 5716 5717 5718 5719 5719 5720 5721 5722 5722 5722 5722 5722 5721 5721 5720 5719 5718 5717 5716 5715 5714 5713 5712 5712 5712 5711 5711 5710 5710 5711 5712
5700 5700 5700 5701 5702 5703 5704 5706 5707 5708 5709 5710 5711 5711 5713 5713 5714 5715 5715 5715 5716 5716 5716 5715 5715 5714 5714 5713 5712 5711 5710 5708 5707 5706 5705 5704 5704 5703 5702 5701 5701 5701 5701 5702
5699 5699 5699 5700 5701 5701 5702 5704 5705 5705 5705 5707 5707 5708 5709 5709 5710 5710 5710 5709 5709 5709 5709 5709 5708 5708 5707 5706 5705 5703 5702 5700 5698 5697 5696 5695 5695 5694 5693 5692 5692 5691 5691 5692
5698 5698 5698 5698 5699 5700 5700 5702 5702 5702 5702 5703 5703 5703 5704 5704 5704 5704 5704 5704 5703 5703 5703 5702 5702 5701 5700 5699 5697 5695 5694 5692 5690 5689 5688 5687 5686 5685 5684 5683 5683 5682 5682 5682
5697 5698 5697 5697 5697 5697 5698 5699 5700 5699 5699 5699 5699 5699 5700 5699 5698 5698 5698 5697 5697 5696 5696 5695 5695 5694 5693 5691 5690 5688 5686 5684 5683 5681 5680 5679 5677 5676 5675 5674 5673 5673 5672 5672
5696 5696 5696 5695 5695 5695 5695 5695 5696 5696 5695 5695 5695 5695 5695 5693 5693 5692 5692 5691 5691 5690 5689 5689 5688 5687 5686 5684 5683 5681 5679 5677 5675 5673 5672 5670 5669 5667 5666 5665 5664 5663 5662 5661
5694 5694 5694 5693 5693 5693 5693 5692 5692 5692 5691 5690 5691 5690 5690 5688 5687 5687 5686 5685 5684 5684 5683 5682 5681 5680 5678 5677 5675 5673 5671 5669 5667 5666 5664 5662 5660 5659 5657 5656 5655 5654 5652 5651
5692 5692 5691 5691 5690 5690 5690 5689 5688 5687 5687 5686 5685 5688 5685 5683 5682 5681 5680 5679 5678 5677 5676 5675 5674 5672 5671 5669 5668 5666 5664 5662 5660 5658 5656 5654 5653 5651 5649 5648 5647 5645 5644 5642
5689 5689 5688 5688 5687 5686 5685 5685 5684 5684 5683 5681 5680 5684 5679 5678 5676 5675 5674 5673 5671 5670 5669 5667 5666 5665 5663 5662 5660 5658 5656 5654 5652 5650 5649 5647 5645 5643 5641 5639 5638 5636 5634 5633
5687 5686 5685 5685 5685 5683 5681 5680 5679 5678 5677 5676 5675 5679 5674 5672 5670 5669 5668 5666 5665 5664 5662 5660 5659 5657 5656 5654 5652 5651 5648 5647 5645 5643 5641 5639 5637 5635 5633 5631 5629 5627 5626 5625
5683 5682 5682 5682 5679 5678 5677 5676 5674 5673 5672 5671 5671 5670 5668 5665 5664 5663 5661 5660 5658 5657 5655 5653 5652 5650 5648 5646 5645 5643 5641 5639 5637 5635 5633 5631 5629 5627 5625 5623 5621 5619 5618 5617
5678 5678 5677 5676 5674 5673 5672 5671 5669 5667 5666 5665 5665 5663 5662 5659 5657 5656 5654 5653 5651 5649 5648 5646 5644 5642 5640 5638 5636 5635 5633 5631 5629 5627 5625 5623 5621 5619 5617 5615 5613 5611 5610 5609
5674 5673 5672 5671 5669 5667 5667 5665 5663 5662 5660 5658 5657 5657 5654 5652 5650 5649 5647 5645 5644 5642 5640 5638 5636 5634 5632 5630 5628 5626 5625 5623 5621 5619 5617 5615 5613 5610 5608 5607 5605 5603 5602 5600
5669 5667 5666 5665 5663 5662 5662 5660 5657 5656 5654 5652 5650 5650 5647 5645 5643 5642 5640 5638 5636 5634 5632 5630 5628 5626 5623 5621 5619 5618 5616 5614 5612 5611 5609 5606 5604 5602 5600 5598 5596 5595 5593 5592
5663 5661 5659 5658 5657 5656 5658 5653 5651 5649 5647 5645 5643 5641 5640 5638 5636 5634 5632 5630 5628 5626 5624 5622 5620 5617 5615 5613 5611 5609 5607 5605 5604 5602 5600 5598 5596 5594 5592 5590 5588 5586 5585 5583
5656 5654 5652 5650 5648 5648 5649 5646 5643 5641 5640 5638 5636 5634 5632 5630 5628 5626 5624 5622 5620 5618 5615 5613 5611 5609 5606 5604 5602 5600 5598 5596 5595 5593 5592 5590 5588 5585 5583 5581 5580 5578 5577 5575
5648 5646 5645 5642 5640 5639 5641 5638 5634 5633 5632 5630 5627 5625 5623 5621 5620 5619 5616 5613 5611 5609 5607 5605 5602 5600 5598 5595 5593 5591 5589 5588 5586 5585 5583 5582 5580 5577 5575 5573 5571 5569 5568 5566
5639 5637 5636 5633 5630 5631 5632 5628 5626 5625 5624 5621 5618 5616 5614 5612 5611 5609 5607 5604 5602 5600 5598 5595 5593 5591 5589 5587 5585 5583 5581 5580 5578 5577 5575 5573 5571 5569 5567 5565 5563 5561 5559 5558
5630 5628 5627 5624 5622 5624 5621 5618 5617 5616 5613 5611 5609 5607 5605 5603 5601 5599 5597 5595 5593 5591 5589 5586 5584 5582 5580 5578 5576 5574 5573 5571 5570 5568 5567 5565 5563 5561 5558 5556 5554 5552 5551 5549
5620 5620 5617 5615 5616 5614 5610 5608 5606 5604 5603 5601 5600 5598 5596 5594 5592 5590 5588 5586 5584 5582 5580 5578 5576 5574 5572 5570 5568 5566 5565 5563 5561 5560 5559 5557 5555 5552 5550 5548 5546 5544 5542 5540
5610 5608 5606 5604 5605 5603 5600 5597 5595 5594 5592 5591 5590 5588 5586 5584 5582 5581 5579 5576 5575 5573 5571 5569 5567 5566 5564 5562 5560 5558 5557 5555 5553 5552 5550 5548 5546 5544 5541 5539 5537 5535 5534 5532
5599 5596 5594 5592 5593 5590 5589 5586 5585 5583 5582 5581 5580 5578 5576 5574 5572 5570 5568 5567 5565 5563 5561 5560 5558 5557 5555 5553 5552 5550 5548 5546 5545 5543 5541 5539 5537 5535 5533 5531 5529 5528 5526 5524
5589 5585 5582 5581 5580 5577 5577 5575 5574 5573 5571 5570 5569 5567 5565 5563 5562 5560 5558 5556 5555 5553 5552 5550 5549 5547 5546 5544 5542 5541 5539 5538 5536 5534 5532 5530 5528 5526 5525 5523 5522 5519 5518 5516
Wind_Speed
7 9 11 13 15 16 16 17 18 19 20 21 22 22 23 24 24 25 25 25 25 26 27 28 28 29 29 30 31 31 32 32 33 34 35 37 38 39 40 41 42 43 43 44
6 8 9 11 13 14 15 16 17 19 20 21 22 22 23 24 24 24 25 25 25 26 26 26 28 28 29 30 31 32 32 32 33 33 35 36 38 39 40 40 41 43 44 45
3 6 8 10 12 14 14 15 16 17 19 20 21 22 22 23 23 23 24 25 25 25 25 26 28 29 29 30 31 32 32 32 33 33 34 35 36 38 40 40 41 42 43 44
2 4 6 9 11 13 13 14 15 16 18 19 20 21 22 22 23 23 24 24 25 25 26 27 28 28 29 30 31 31 32 33 34 33 33 34 35 37 38 40 41 42 42 43
3 4 5 7 10 11 12 13 14 15 16 18 20 21 21 22 23 24 24 25 25 26 26 27 28 28 29 29 30 31 32 33 33 34 34 35 35 36 37 38 39 41 42 42
4 4 5 7 8 10 11 12 13 14 15 17 18 20 21 21 22 23 24 25 26 27 27 27 27 28 29 29 30 30 31 32 33 33 34 34 35 35 35 36 38 39 39 40
4 5 6 6 8 9 11 12 13 14 15 16 16 18 19 20 21 23 24 25 26 27 28 28 28 28 29 29 29 30 30 31 32 33 34 34 34 34 35 36 36 37 37 39
5 6 6 7 7 9 10 12 13 14 15 15 16 17 19 20 20 21 23 24 25 26 27 27 28 28 29 29 29 29 30 31 32 32 33 34 34 34 34 35 35 36 36 37
7 6 7 7 8 9 10 11 13 14 15 16 16 17 18 18 19 19 20 22 23 25 26 27 28 29 29 30 30 30 31 31 31 32 32 33 34 34 34 34 34 35 35 37
8 8 8 9 9 10 11 12 12 13 15 16 16 16 17 17 18 19 20 21 22 23 25 26 27 28 29 30 31 31 31 31 31 31 31 31 31 32 32 33 33 34 35 36
9 9 9 10 10 11 11 12 13 14 15 16 16 15 16 17 18 19 20 22 23 24 24 24 25 26 27 28 29 29 29 29 30 30 30 30 30 30 30 31 32 33 33 34
11 10 10 10 11 12 12 13 14 16 16 17 17 15 17 18 19 20 21 22 22 23 24 25 26 27 27 28 28 28 28 28 29 29 29 30 30 29 30 30 31 31 32 32
12 12 12 12 12 12 13 14 15 17 18 18 18 17 18 19 20 21 22 22 22 23 24 25 26 27 28 28 28 28 28 28 28 28 28 28 28 29 29 28 28 28 29 29
14 13 14 14 14 14 14 15 16 18 19 18 18 18 19 21 21 22 23 23 24 24 25 25 26 27 28 28 28 28 27 27 27 27 27 28 28 28 28 27 27 27 27 28
16 15 15 16 16 16 16 17 18 19 19 20 20 21 22 23 23 23 24 25 25 25 25 25 26 27 27 28 28 28 27 27 27 27 27 27 27 28 27 27 27 27 28 28
17 18 18 18 18 18 18 18 20 20 20 21 22 22 24 25 25 25 25 25 25 25 26 26 26 27 27 27 27 27 28 28 27 27 27 27 27 27 28 28 27 27 28 28
20 21 21 21 20 21 20 20 21 21 22 23 23 24 25 26 25 25 25 25 26 25 26 26 26 26 27 27 27 27 27 27 27 26 26 26 26 27 27 27 27 27 27 28
23 23 24 24 23 23 22 22 22 23 23 24 25 26 26 26 26 26 26 26 27 27 27 27 26 27 27 27 28 28 28 27 26 25 25 25 25 26 26 26 26 26 27 27
25 25 26 26 26 26 24 25 25 25 25 26 27 27 27 27 27 27 27 27 28 27 27 27 27 27 27 28 28 28 28 27 25 25 25 25 25 25 25 26 26 27 27 27
27 27 28 28 29 28 27 27 27 28 28 28 28 28 27 27 27 27 28 27 27 27 28 28 28 28 28 27 27 27 27 26 25 25 24 24 25 25 25 26 26 26 27 27
30 30 30 30 31 30 28 29 30 30 30 29 29 28 27 28 28 28 29 28 28 29 29 29 29 28 28 27 27 27 27 26 25 25 25 25 25 26 26 26 25 25 25 26
32 32 32 32 32 31 30 30 31 31 31 30 30 29 28 28 29 28 28 28 28 28 29 29 29 28 28 28 27 27 26 25 26 26 25 26 25 25 25 25 25 25 26 26
33 33 34 34 34 32 31 31 32 32 32 31 31 31 30 30 30 29 29 29 28 28 29 29 29 28 27 27 27 26 25 25 26 25 26 26 26 26 26 25 25 25 25 25
36 35 36 36 35 34 34 34 34 34 33 32 32 32 32 32 32 31 30 29 29 29 29 29 28 27 27 26 26 26 26 26 26 26 26 27 27 26 26 26 26 26 26 26
37 37 37 37 36 36 36 35 35 35 34 34 33 33 33 33 33 32 31 30 30 30 30 30 29 28 28 27 26 26 27 27 27 27 27 27 27 27 26 26 26 27 27 27
36 37 38 38 37 38 37 36 36 36 35 35 34 34 34 34 33 32 31 31 31 30 30 29 29 29 29 28 28 28 28 28 27 27 28 28 28 28 27 27 28 28 28 29
Wind_Direction
239 232 227 222 219 219 220 224 225 227 228 232 234 236 239 241 242 244 245 246 248 250 253 254 256 258 260 262 263 266 268 268 267 265 265 264 263 262 261 260 259 257 257 257
241 230 224 224 222 219 223 225 227 228 231 234 235 238 241 242 244 246 246 247 248 252 255 257 259 260 262 264 265 266 269 270 271 269 268 267 265 263 261 261 260 259 258 258
251 232 226 226 225 225 228 229 231 233 233 234 238 240 242 243 244 245 247 249 251 254 257 260 262 263 264 266 268 269 270 271 272 271 269 268 268 266 264 262 261 260 260 259
248 237 235 228 226 230 232 232 235 238 238 239 240 243 242 244 245 248 249 252 255 258 261 263 265 267 268 269 271 272 272 272 272 272 271 270 269 268 267 265 263 261 260 259
267 254 243 232 231 234 237 237 241 244 246 245 245 247 245 246 248 250 253 255 257 260 262 265 266 268 270 272 273 274 275 275 275 273 273 273 272 271 270 268 266 263 261 260
287 267 257 245 242 242 240 245 247 249 250 250 251 251 250 250 253 255 258 259 260 261 264 266 268 270 272 274 275 276 276 277 276 275 273 273 273 273 272 270 268 265 262 260
291 275 267 256 256 252 247 250 254 255 254 255 256 257 256 256 258 260 262 263 263 264 265 268 270 271 273 276 278 279 279 278 277 276 274 273 272 273 273 271 269 267 264 261
302 284 273 264 263 261 256 255 258 261 261 262 262 263 264 262 261 262 263 265 266 267 268 269 271 273 274 277 279 280 281 281 280 278 275 273 273 274 274 272 269 268 266 264
303 288 278 270 270 270 265 262 262 265 267 267 267 269 267 264 263 263 264 266 268 269 270 272 273 275 277 279 281 282 282 283 282 280 278 277 276 276 275 272 271 269 268 267
306 290 280 276 275 273 272 271 271 271 275 275 273 272 270 268 266 266 267 269 270 272 273 275 276 277 279 281 282 283 284 284 284 283 281 280 280 279 276 273 272 271 271 268
307 298 288 280 275 275 275 275 273 276 278 280 279 277 277 274 271 270 271 272 273 275 276 278 279 280 281 282 284 284 284 285 285 285 283 281 282 281 279 276 274 274 272 270
302 298 291 285 279 277 276 275 276 278 279 279 280 283 281 280 278 277 275 275 276 277 278 279 280 281 282 283 284 284 284 285 286 286 284 282 283 283 282 280 276 274 273 271
299 295 291 285 281 280 278 277 278 278 279 279 280 283 283 283 282 280 278 278 280 280 280 281 282 282 282 283 284 285 285 285 286 287 286 285 284 284 284 282 279 276 274 272
296 293 290 288 285 283 281 280 280 280 280 279 281 281 280 280 281 280 280 281 281 281 282 283 283 283 284 285 285 285 286 286 286 286 286 285 284 284 284 282 279 276 275 274
294 291 288 285 283 283 282 281 281 281 281 281 281 280 280 280 283 284 283 283 282 282 282 282 283 284 283 284 285 285 285 286 286 285 285 285 284 282 282 281 278 277 276 275
292 291 289 285 283 283 283 283 281 282 283 283 282 280 279 281 284 285 284 283 282 282 282 282 283 284 284 283 284 284 284 285 285 284 284 283 283 282 280 280 278 276 276 275
290 290 289 287 285 283 283 284 284 284 283 283 283 282 281 282 283 284 283 283 285 284 284 284 285 285 284 283 284 283 283 283 283 283 284 284 282 283 282 281 280 277 277 277
291 290 290 289 286 285 285 284 284 284 284 283 284 283 283 284 283 283 282 283 284 284 284 285 286 286 286 285 283 283 283 283 281 280 282 284 283 283 283 281 280 279 279 279
288 288 289 289 287 285 284 284 284 284 285 285 284 284 284 283 282 282 282 282 284 284 285 286 287 288 288 287 285 283 283 282 279 279 281 284 285 284 283 282 281 280 279 279
284 285 287 288 288 286 286 285 285 284 285 286 286 285 285 284 283 283 283 283 284 285 286 287 287 287 286 286 286 283 282 280 279 279 280 283 284 285 284 283 283 281 280 280
283 284 285 286 286 286 287 286 285 286 287 287 287 286 285 285 286 285 284 282 284 286 285 286 286 286 286 285 285 284 281 279 278 278 279 282 284 286 285 284 285 284 283 283
282 283 284 285 285 286 286 285 285 286 285 285 286 287 286 286 286 286 285 284 284 285 285 285 286 287 286 285 284 284 281 280 280 278 279 282 284 286 286 286 286 286 286 286
281 283 282 282 284 285 285 283 282 283 283 284 284 285 286 285 285 285 285 284 282 284 284 284 286 286 285 285 284 282 281 281 281 280 280 281 283 284 286 286 286 285 286 286
281 281 280 281 282 282 282 281 281 282 283 284 285 286 286 285 285 285 284 283 281 282 284 284 284 284 284 284 284 283 283 284 283 281 281 282 283 284 283 283 284 283 284 284
282 282 281 281 282 279 279 279 279 280 281 283 284 285 285 283 283 283 282 282 280 281 282 282 281 281 282 283 283 282 283 284 283 283 283 283 284 283 281 281 281 282 282 283
282 281 281 282 281 279 277 278 279 280 281 283 283 283 283 283 282 281 280 281 280 280 280 281 280 280 281 282 281 281 281 282 282 284 284 283 284 282 281 281 280 280 281 283